Regional Weather Roundup
Issued by NWS Nashville, TN

Current Version | Previous Version | Text Only | Print | Product List | Glossary Off
Versions: 1 2 3 4 5 6 7 8 9 10 11 12 13 14 15 16 17 18 19 20 21 22 23 24 25 26 27 28 29 30 31 32 33 34 35 36 37 38 39 40 41 42 43 44 45 46 47 48 49 50

000
ASUS44 KOHX 182215
RWROHX
MIDDLE TENNESSEE HOURLY WEATHER ROUNDUP
NATIONAL WEATHER SERVICE NASHVILLE TN
400 PM CST THU DEC 18 2014

NOTE: "FAIR" INDICATES FEW OR NO CLOUDS BELOW 12,000 FEET WITH
NO SIGNIFICANT WEATHER AND/OR OBSTRUCTIONS TO VISIBILITY.

* THESE REPORTS ARE NOT UNDER NWS QUALITY CONTROL AND MAY NOT
  REPORT WEATHER SUCH AS PRECIPITATION AND FOG.


TNZ005>011-023>034-057-059-062>066-078-080-182300
...NORTHERN MIDDLE TENNESSEE...

CITY           SKY/WX    TMP DP  RH WIND       PRES   REMARKS
CLARKSVILLE    CLOUDY    36  29  75 NE3       30.22S
CROSSVILLE     CLOUDY    39  28  64 N7        30.15R WCI  34
GALLATIN       CLOUDY    36  32  85 NE6       30.21F WCI  31
DICKSON        CLOUDY    36  30  80 E6        30.18F WCI  31
LEBANON        CLOUDY    36  31  82 N5        30.19S WCI  32
LIVINGSTON     CLOUDY    34  30  85 CALM      30.17S
NASHVILLE      CLOUDY    38  32  79 N6        30.21F WCI  33
WEST NASHVILLE CLOUDY    36  34  93 N3        30.21F
PORTLAND       CLOUDY    32  28  86 NE3       30.19F
SMYRNA         CLOUDY    38  32  79 N6        30.22S WCI  33
SPARTA         MOCLDY    37  34  87 CALM      30.17F
$$
TNZ056-058-060-061-075>077-079-093>097-182300
...SOUTHERN MIDDLE TENNESSEE...

CITY           SKY/WX    TMP DP  RH WIND       PRES   REMARKS
LEWISBURG      CLOUDY    40  33  76 N3        30.18S
MCMINNVILLE    CLOUDY    37  34  87 CALM      30.17F
MURFREESBORO   CLOUDY    38  33  82 N5        30.20F WCI  34
SHELBYVILLE    CLOUDY    39  36  87 NE8       30.19S WCI  34
TULLAHOMA      CLOUDY    39  34  81 N5        30.16F
WINCHESTER     CLOUDY    43  36  75 VRB3      30.17R
$$


...KEY TO REMARKS...
VSB - VISIBILITY IN MILES
WCI - WIND CHILL INDEX
HX  - HEAT INDEX




USA.gov is the U.S. government's official web portal to all federal, state and local government web resources and services.